Location: Bismarck
(46.7731°N, 100.8200°W)
Time: 20:20:25
(UTC-06:00)

ISS - Pass Details

Date: 27 November 2017
Orbit: 402 x 407 km, 51.6° (Epoch: 10 December)

Event Time Altitude Azimuth Distance (km) Brightness Sun altitude
Rises 19:48:18 0° 237° (WSW) 2,321 0.9 -28.4°
Reaches altitude 10° 19:50:22 10° 235° (SW) 1,463 -0.3 -28.7°
Enters shadow 19:50:48 13° 235° (SW) 1,290 -0.7 -28.8°
Maximum altitude 19:53:38 73° 152° (SSE) 428 - -29.3°
Drops below altitude 10° 19:56:55 10° 66° (ENE) 1,467 - -29.9°
Sets 19:59:00 0° 65° (ENE) 2,328 - -30.2°
